Погода в Подкумке

Россия / Ставропольский край     43°57′56″N   42°46′20″E
темп.,
°C
ветер,
м/с
пор.,
м/с
влажн.,
%
обл.,
%
осадки,
мм/ч
давл.,
гПа
погр.,
м
28 ноября, вс
вс2800:00+5ю334667 0.0 101815
03:00+6ю3252100 0.0 101616
06:00+6ююз2253100 0.0 101510
09:00+9ю325087 0.0 101523
12:00+12св1143100 0.0 1013275
15:00+11всв224824 0.0 1012112
18:00+7ююв225997 0.0 101412
21:00+7ю2158100 0.0 101411
29 ноября, пн
пн2900:00+7зюз226197 0.0 101410
03:00+8юз2260100 0.0 101412
06:00+7ю2262100 0.0 101510
09:00+9ююз2256100 0.0 101518
12:00+15вюв22405 0.0 1012294
15:00+14в224794 0.0 101255
18:00+11ю334850 0.0 101018
21:00+12ююз324218 0.0 100914
30 ноября, вт
вт3000:00+12ююз334499 0.0 100617
03:00+12ююз3350100 0.0 100518
06:00+11зюз3352100 0.0 100522
09:00+8ссз2596100 0.0 1008438
12:00+10в1178100 0.1 1007231
15:00+10всв348145 0.1 1005343
18:00+7юв34935 0.0 100471
21:00+7юв3491100 0.2 1000126
1 декабря, ср
ср100:00+7ю4588100 1.8 996147
03:00+5сз71097100 6.8 1000737
06:00+5зюз388893 4.0 1000236
09:00+7зсз81258100 4.1 1004615
12:00+1зсз101585100 0.2 1011807
15:00+1зсз7127487 0.2 1010694
18:000зсз388798 0.0 1013607
21:000сз1286100 0.0 1014309
2 декабря, чт
чт200:000ююв34865 0.1 101590
03:000юз22730 0.1 101415
06:00−1ююз228597 0.0 101816
09:00+2ююв23655 0.0 1019169
12:00+5вюв22471 0.0 1018638
15:00+5св21480 0.0 1019558
18:00+2ююв21660 0.0 102110
21:00+1ю11610 0.0 102110